Torna al catalogo

FENGYUN 1C DEB

AttivoPO
NORAD 30654·DEBRIS·🇨🇳 China

Lanciato May 10, 1999 da Taiyuan Satellite Launch Center

Loading…

Prossimi Passaggi (prossime 24 ore)

TLE

AggiornatoSource: Space-Track

Epoca: Sep 14, 2026, 06:35 UTC

1 30654U 99025APL 26257.27490977  .00001373  00000-0  68787-3 0  9993
2 30654  99.2498 196.6770 0036020  41.0661 319.3214 14.18120328  5824

Traccia FENGYUN 1C DEB in tempo reale con AllMySat

Download on the App Store